Location: Oberkirch
(48.5323°N, 8.0787°E)
Time: 07:35:21
(UTC+00:00)

Cosmos 2278 Rocket - Pass Details

Date: 08 November 2025
Orbit: 841 x 843 km, 71.0° (Epoch: 12 December)

Event Time Altitude Azimuth Distance (km) Brightness Sun altitude
Exits shadow 05:11:53 - 322° (NW) 2,630 4.3 -12.3°
Reaches altitude 10° 05:12:20 10° 320° (NW) 2,469 4.2 -12.2°
Maximum altitude 05:17:35 41° 252° (WSW) 1,204 2.6 -11.4°
Drops below altitude 10° 05:22:49 10° 184° (S) 2,453 4.7 -10.6°
Sets 05:25:22 0° 177° (S) 3,384 5.6 -10.1°
